User: anonymous   Login
Location: La Comballaz
(46.3780°N, 7.0817°E)
Time: 17:48:13
(UTC+00:00)
Language:

FO-99 - Orbit

View from above orbital plane
View from above orbital plane
View from above satellite
View from above satellite

Ground track
Ground track

The orbit data is extracted from the following two-line orbital elements,

1 43937U 19003F   22334.06216960  .00015910  00000-0  46142-3 0  9999
2 43937  97.1143   1.2836 0016230 281.7456  78.1967 15.35476185215346
Epoch (UTC): 30 November 2022 01:29:31
Eccentricity: 0.0016230
inclination: 97.1143°
perigee height: 448 km
apogee height: 470 km
right ascension of ascending node: 1.2836°
argument of perigee: 281.7456°
revolutions per day: 15.35476185
mean anomaly at epoch: 78.1967°
orbit number at epoch: 21534

The dashed part of the orbit path shows where the satellite is in the earth's shadow,  

DLR